This demonstration page uses our WeatherBlox Daily Observations layout. Learn more.

Left ArrowRight Arrow

Hourly Observations for July 1, 2016

Temp ( °F °C ) Dew Point ( °F °C ) Humidity (%) Winds ( mph kmh ) Pressure ( in mb ) Visibility ( mi km ) Precip ( " mm )
12:53 am 00:53 Mostly Cloudy 78 25.6 69 20.6 74 74 SSE 6 9 29.96 1015 10 16 0.00 0.00
1:35 am 01:35 Mostly Cloudy 77 25 70 21.1 79 79 S 7 11 29.97 1015 10 16 0.00 0.00
1:53 am 01:53 Cloudy 77 25 70 21.1 79 79 SSW 6 9 29.96 1015 10 16 0.00 0.00
2:53 am 02:53 Mostly Cloudy 76 24.4 70 21.1 82 82 SSW 3 6 29.95 1014 10 16 0.00 0.00
3:07 am 03:07 Partly Cloudy 76 24.4 70 21.1 82 82 S 5 7 29.94 1014 10 16 0.00 0.00
3:22 am 03:22 Mostly Cloudy 75 24 70 21 83 83 SSW 5 7 29.94 1014 10 16 0.00 0.00
3:50 am 03:50 Partly Cloudy 75 24 72 22 89 89 S 6 9 29.94 1014 10 16 0.00 0.00
3:53 am 03:53 Mostly Clear 76 24.4 71 21.7 85 85 S 7 11 29.93 1014 10 16 0.00 0.00
4:40 am 04:40 Mostly Cloudy 75 24 72 22 89 89 SW 5 7 29.94 1014 10 16 0.00 0.00
4:53 am 04:53 Mostly Cloudy 76 24.4 71 21.7 85 85 SSW 5 7 29.95 1014 10 16 0.00 0.00
5:53 am 05:53 Cloudy 75 23.9 71 21.7 88 88 SSW 7 11 29.96 1015 10 16 0.00 0.00
6:53 am 06:53 Cloudy 76 24.4 70 21.1 82 82 VRB 7 11 29.97 1015 10 16 0.00 0.00
7:53 am 07:53 Cloudy 76 24.4 69 20.6 79 79 WSW 8 13 29.98 1015 10 16 0.00 0.00
8:53 am 08:53 Mostly Cloudy 77 25 69 20.6 77 77 VRB 3 6 30.00 1016 10 16 0.00 0.00
9:05 am 09:05 Partly Cloudy 77 25 69 20.6 77 77 VRB 3 6 30.00 1016 10 16 0.00 0.00
9:53 am 09:53 Sunny 80 26.7 68 20 67 67 SSW 6 9 30.00 1016 10 16 0.00 0.00
10:53 am 10:53 Sunny 83 28.3 68 20 61 61 S 8 13 30.01 1016 10 16 0.00 0.00
11:53 am 11:53 Sunny 87 30.6 60 15.6 40 40 NW 12 19 30.00 1016 10 16 0.00 0.00
12:53 pm 12:53 Sunny 88 31.1 56 13.3 34 34 W 7 11 29.99 1016 10 16 0.00 0.00
1:53 pm 13:53 Sunny 91 32.8 52 11.1 26 26 WNW 9 15 29.98 1015 10 16 0.00 0.00
2:53 pm 14:53 Sunny 92 33.3 51 10.6 25 25 NNW 12 19 29.96 1015 10 16 0.00 0.00
3:53 pm 15:53 Sunny 92 33.3 51 10.6 25 25 W 8 13 29.94 1014 10 16 0.00 0.00
4:53 pm 16:53 Sunny 93 33.9 51 10.6 24 24 NNW 10 17 29.93 1014 10 16 0.00 0.00
5:53 pm 17:53 Sunny 93 33.9 54 12.2 27 27 WNW 9 15 29.93 1014 10 16 0.00 0.00
6:53 pm 18:53 Sunny 93 33.9 56 13.3 29 29 NW 9 15 29.93 1014 10 16 0.00 0.00
7:53 pm 19:53 Cloudy 88 31 68 20 52 52 SSE 20 31 29.88 1012 10 16 0.00 0.00
8:53 pm 20:53 Clear 84 28.9 62 16.7 48 48 Calm 29.95 1014 10 16 0.00 0.00
9:53 pm 21:53 Clear 80 26.7 64 17.8 58 58 Calm 29.96 1014 10 16 0.00 0.00
10:53 pm 22:53 Mostly Cloudy 78 25.6 64 17.8 62 62 Calm 29.98 1015 10 16 0.00 0.00
11:53 pm 23:53 Clear 76 24.4 64 17.8 67 67 Calm 29.98 1015 10 16 0.00 0.00

Powered by AerisWeather